Date,TemperatureHighF,TemperatureAvgF,TemperatureLowF,DewpointHighF,DewpointAvgF,DewpointLowF,HumidityHigh,HumidityAvg,HumidityLow,PressureMaxIn,PressureMinIn,WindSpeedMaxMPH,WindSpeedAvgMPH,GustSpeedMaxMPH,PrecipitationSumIn
2013-4-1,73,60,52,55,49,38,100,71,35,29.98,29.79,4,0,11,0.03
2013-4-2,61,49,35,36,31,24,88,52,26,30.16,29.98,3,0,11,0.00
2013-4-3,61,49,37,33,26,22,70,43,24,30.31,30.14,3,0,10,0.00
2013-4-4,49,42,39,40,33,24,96,71,45,30.38,29.95,4,1,12,0.59
2013-4-5,64,48,40,50,43,39,97,85,53,30.01,29.87,3,0,9,0.04
2013-4-6,65,53,39,41,34,26,96,53,31,30.28,30.01,3,1,10,0.00
2013-4-7,72,55,34,47,40,32,93,62,36,30.29,30.11,3,0,13,0.00
2013-4-8,80,66,53,59,54,44,95,67,42,30.17,30.03,4,1,12,0.00
2013-4-9,86,72,60,62,58,56,92,64,38,30.17,30.04,3,0,9,0.00
2013-4-10,88,75,62,64,60,57,87,63,39,30.08,29.92,4,1,11,0.00
2013-4-11,81,72,63,67,62,58,90,71,49,29.98,29.78,3,1,13,0.00
2013-4-12,80,72,65,71,64,46,97,79,50,29.80,29.58,5,1,19,0.74
2013-4-13,75,63,50,48,44,40,81,53,32,29.99,29.74,3,0,7,0.00
2013-4-14,82,64,44,54,46,42,96,59,25,30.11,30.00,2,0,11,0.00
2013-4-15,72,64,58,60,57,54,94,79,60,30.21,30.03,2,0,10,0.03
2013-4-16,77,64,58,62,58,56,97,83,53,30.31,30.19,1,0,5,0.00
2013-4-17,84,69,56,67,62,55,98,79,53,30.22,30.10,0,0,0,0.00
2013-4-18,80,70,60,65,61,58,95,75,49,30.19,30.04,0,0,0,0.00
2013-4-19,82,71,65,69,66,62,97,85,64,30.05,29.70,0,0,0,0.66
2013-4-20,65,55,44,64,44,36,97,70,39,30.27,29.80,0,0,0,0.12
2013-4-21,62,51,40,44,40,37,95,68,47,30.50,30.27,0,0,0,0.00
2013-4-22,60,49,37,48,40,34,92,73,50,30.50,30.28,0,0,0,0.01
2013-4-23,65,54,49,53,48,44,93,79,57,30.28,30.12,0,0,0,0.00
2013-4-24,77,62,45,59,53,44,98,76,50,30.15,29.97,0,0,0,0.00
2013-4-25,71,61,50,58,49,41,88,65,42,30.27,30.00,0,0,0,0.00
2013-4-26,73,59,46,49,44,37,97,65,29,30.42,30.27,0,0,0,0.00
2013-4-27,75,62,51,53,48,44,84,61,33,30.39,30.26,0,0,0,0.00
2013-4-28,61,58,54,57,51,44,96,80,63,30.26,30.11,0,0,0,0.49
2013-4-29,70,62,55,64,60,54,99,93,78,30.12,29.97,0,0,0,1.34
2013-4-30,65,60,56,61,58,55,100,93,80,30.17,30.00,0,0,0,0.00